Location: Beuvrequen
(50.8014°N, 1.6652°E)
Time: 04:00:50
(UTC+00:00)

OPS 6432 - Pass Details

Date: 16 October 2021
Orbit: 369 x 1711 km, 63.3° (Epoch: 13 June)

Event Time Altitude Azimuth Distance (km) Brightness Sun altitude
Rises 18:39:40 0° 315° (NW) 2,231 8.8 -16.7°
Reaches altitude 10° 18:41:35 10° 314° (NW) 1,386 7.6 -17.0°
Maximum altitude 18:44:31 78° 228° (SW) 413 4.2 -17.5°
Enters shadow 18:45:27 42° 149° (SSE) 598 4.7 -17.6°
